Location: Catstown
(52.4386°N, 7.2633°W)
Time: 14:31:19
(UTC+00:00)

COSMO-SKYMED 1 - Pass Details

Date: 18 September 2020
Orbit: 621 x 623 km, 97.9° (Epoch: 28 October)

Event Time Altitude Azimuth Distance (km) Brightness Sun altitude
Rises 19:06:57 0° 12° (NNE) 2,919 6.0 -5.5°
Reaches altitude 10° 19:09:10 10° 9° (N) 2,008 5.2 -5.9°
Maximum altitude 19:13:29 63° 289° (WNW) 699 3.2 -6.5°
Drops below altitude 10° 19:17:46 10° 208° (SSW) 1,991 5.4 -7.1°
Sets 19:19:58 0° 205° (SSW) 2,892 6.2 -7.5°
